Theta_e
307 307 308 308 307 306 308 308 307 302 299 300 299 303 307 310 313 309 311 312 313 310 312 313 313 314 314 311 311 313 312 313 312 312 311 310 311 311 310 311 311 315 319 334 336
304 303 305 306 305 305 306 306 303 301 299 298 299 304 308 312 313 311 309 309 308 311 312 312 312 313 312 312 311 311 312 313 312 311 312 311 311 311 311 311 311 310 318 322 334
303 302 302 300 301 303 304 304 301 299 298 299 300 307 307 312 314 312 309 309 309 311 312 313 313 314 315 314 313 313 310 312 313 314 313 313 312 311 311 312 310 310 311 310 315
303 302 301 301 300 300 301 300 300 298 298 299 303 308 309 312 318 311 309 308 310 311 312 313 312 314 314 314 312 314 313 314 314 314 314 314 312 312 312 312 311 310 311 310 308
303 303 302 302 301 300 299 299 298 298 299 300 305 309 312 312 311 311 310 309 310 311 312 312 313 313 316 314 314 314 314 314 313 313 313 313 313 313 312 310 309 310 310 310 309
304 304 303 303 302 301 299 298 298 298 299 304 307 312 313 314 310 311 309 311 310 311 312 312 313 313 315 315 315 313 314 314 313 314 314 314 313 312 312 311 311 311 311 309 310
305 305 305 302 301 300 299 298 298 299 302 305 308 313 313 312 310 310 311 311 310 311 312 312 313 313 313 314 313 314 315 313 314 314 315 313 313 315 312 312 312 312 314 314 314
306 305 305 304 300 300 299 298 299 300 304 306 309 313 312 309 310 310 310 311 311 312 312 312 313 313 313 313 314 315 314 314 313 314 315 313 315 314 311 311 310 310 310 311 312
307 306 305 304 300 299 298 299 302 305 306 307 312 312 311 308 310 309 310 311 311 313 313 313 313 314 314 314 312 311 313 315 315 315 314 314 314 313 312 311 309 308 309 310 311
307 306 306 304 300 299 298 301 303 308 309 310 310 310 308 309 309 309 310 311 311 312 315 314 313 314 310 310 308 312 316 315 315 316 313 314 316 314 311 310 310 308 309 308 311
307 306 306 304 299 298 303 307 306 307 307 307 308 309 309 309 309 311 310 311 311 312 313 315 311 307 311 312 313 313 315 316 313 315 315 316 314 313 311 309 309 308 308 308 310
307 306 305 303 299 300 305 306 304 305 307 306 307 307 308 308 311 311 310 312 312 312 312 310 314 310 310 311 312 315 312 312 312 316 317 316 315 311 309 309 307 305 305 307 309
307 306 305 300 298 302 303 304 304 305 309 307 307 308 308 308 310 310 310 311 312 311 311 311 310 309 309 310 314 312 310 311 312 316 316 313 316 310 310 309 309 306 305 303 308
306 306 304 299 301 302 301 299 303 305 305 308 308 308 307 308 311 309 309 311 312 311 310 310 308 309 309 310 310 312 315 312 313 319 320 311 314 310 309 310 309 308 306 306 308
305 305 304 299 302 302 302 298 303 305 309 307 306 306 307 309 309 310 308 310 313 312 309 309 309 308 309 310 309 310 310 312 315 319 320 310 311 311 309 310 308 309 308 310 308
305 305 303 299 300 302 297 303 305 305 306 307 307 308 308 308 309 308 309 308 309 310 310 309 307 308 309 308 308 309 311 313 316 318 318 308 308 305 311 310 309 308 307 307 308
305 305 301 302 303 300 301 304 302 303 302 305 306 307 308 309 309 309 310 311 311 306 311 310 309 308 308 309 310 309 310 307 309 310 312 310 310 308 309 309 307 307 306 306 305
304 304 300 301 301 298 302 298 298 302 302 306 307 307 308 308 308 309 309 309 309 309 309 309 308 309 308 309 310 309 311 308 312 314 312 309 310 307 308 307 306 305 304 303 303
304 301 300 300 299 299 299 297 301 303 304 307 306 306 306 308 309 308 308 308 308 308 310 311 311 308 308 307 308 310 309 310 313 306 312 310 311 308 307 306 303 302 301 300 300
302 302 303 301 298 301 295 299 302 301 304 305 304 306 306 305 307 307 307 306 308 308 307 309 306 308 308 307 309 310 309 310 306 307 312 311 310 310 308 305 301 300 299 299 298
302 301 302 300 299 296 295 295 300 298 304 305 304 305 307 307 304 307 307 306 307 307 307 308 307 307 308 309 309 309 311 311 308 309 316 314 309 304 305 302 300 300 299 298 298
302 302 300 299 295 293 294 293 297 298 302 304 305 305 303 306 306 306 307 307 305 306 308 308 307 304 308 306 306 308 311 310 309 310 308 311 309 305 301 299 298 299 298 298 297
299 299 299 299 295 296 294 291 296 300 302 303 302 304 304 304 304 306 307 305 306 307 308 307 298 296 306 305 306 309 310 310 309 307 310 310 309 302 300 298 298 298 298 297 297
299 300 298 298 295 296 292 291 291 298 301 302 303 303 304 304 305 306 307 305 304 306 306 306 304 303 306 307 305 306 307 308 309 306 309 308 308 303 300 298 297 297 297 296 296
298 300 297 298 299 299 296 296 295 296 298 300 302 302 303 303 304 304 305 304 304 306 305 306 300 304 304 304 305 304 304 304 306 307 308 307 307 305 301 297 296 296 296 296 296
299 300 299 297 298 298 298 297 298 298 297 299 298 302 302 302 302 303 304 303 303 305 304 304 297 299 295 302 302 304 303 302 302 303 304 306 307 304 301 296 296 297 296 295 296
299 299 302 300 299 299 299 299 299 299 298 299 300 300 301 302 301 301 301 301 302 303 304 302 296 290 293 296 292 293 294 301 301 301 303 306 306 303 299 299 297 296 295 295 295
Wind_Speed
6 7 9 9 10 11 12 12 13 14 14 15 15 13 13 7 8 12 8 9 11 14 15 17 17 18 5 1 3 4 3 2 5 6 7 7 9 4 6 4 7 10 5 6 7
7 8 9 9 10 11 11 12 13 14 14 15 13 12 11 6 5 12 9 10 11 12 15 15 8 15 2 2 3 3 2 1 2 3 5 8 7 10 10 16 6 10 8 19 9
8 8 9 9 9 10 12 13 13 14 13 14 11 10 9 6 2 3 11 9 11 14 15 15 12 2 3 1 3 5 3 5 3 8 7 7 9 7 8 8 2 11 23 11 11
8 9 9 10 10 11 12 12 13 14 14 12 9 9 6 3 1 6 11 10 11 15 15 14 7 4 4 4 5 3 4 8 7 8 7 6 6 7 7 9 13 14 18 10 10
8 9 9 10 11 12 12 13 13 13 13 9 8 9 3 3 3 7 10 9 10 13 17 7 9 4 3 2 6 3 6 10 9 12 8 7 6 5 9 9 12 12 12 17 8
7 9 10 11 12 13 13 14 14 13 10 6 6 6 3 2 2 6 8 9 11 13 14 14 4 4 1 2 2 3 5 12 5 7 6 8 5 4 8 10 13 15 12 11 10
8 9 10 11 12 13 13 14 14 12 5 4 5 5 3 1 2 7 8 7 8 8 4 9 6 5 3 3 1 4 3 8 4 3 5 6 6 3 6 15 15 15 13 15 16
10 10 11 12 11 13 14 14 12 5 3 3 3 3 1 2 1 4 4 3 6 4 5 3 3 3 3 5 4 2 3 6 8 8 4 5 5 7 12 11 14 16 16 16 17
12 11 11 12 12 12 14 12 4 3 3 2 3 2 2 1 1 4 2 2 3 1 2 1 2 1 2 4 4 7 4 7 8 5 6 6 7 10 12 12 11 13 18 18 18
11 11 11 12 11 13 12 5 2 2 3 3 3 2 1 2 2 3 1 3 2 2 1 2 2 2 3 5 1 5 4 5 6 6 6 7 9 11 14 13 14 14 14 16 17
13 11 10 11 10 11 10 2 3 2 1 1 2 1 2 5 2 3 2 1 2 2 0 3 4 2 3 2 6 6 4 7 5 4 3 5 5 11 12 12 15 15 14 15 16
14 10 9 9 8 6 4 2 3 1 1 0 1 1 1 1 1 2 3 0 1 3 2 4 2 2 2 4 5 4 2 4 6 3 2 6 4 7 11 10 9 12 15 18 16
13 10 7 6 6 2 3 3 3 3 2 1 1 1 2 1 2 2 3 4 2 3 3 3 1 1 3 5 1 3 3 3 7 4 2 7 1 8 8 8 12 11 13 17 16
13 10 6 4 1 0 1 0 2 2 4 2 2 2 2 1 0 2 2 0 2 2 2 2 4 1 4 2 2 4 6 6 5 2 2 3 4 4 10 10 14 13 9 12 15
11 11 5 3 2 1 1 1 2 2 3 2 3 1 0 1 3 1 1 1 2 3 3 3 3 3 3 1 2 7 7 6 2 1 3 2 2 5 9 11 16 12 11 8 10
13 10 6 3 3 1 2 2 1 5 5 2 4 3 2 3 2 4 2 0 1 3 3 6 4 4 3 7 4 7 6 3 3 2 1 5 3 5 8 9 11 9 12 13 12
15 11 8 5 3 4 4 1 4 4 4 3 4 4 3 3 3 1 1 0 1 4 3 3 2 3 1 4 4 6 5 3 5 3 3 0 5 4 5 5 3 8 10 11 10
16 13 9 6 4 6 2 4 3 2 4 2 3 3 3 2 1 2 1 1 1 1 2 1 4 1 2 1 2 4 1 3 3 1 4 3 1 4 3 4 3 3 2 6 7
19 12 7 7 7 7 4 2 6 6 5 7 2 3 2 1 3 2 4 2 2 3 2 2 1 2 1 1 1 4 3 2 1 2 2 2 1 3 3 3 6 6 9 8 8
21 10 6 9 9 5 4 5 3 2 3 4 4 4 5 3 4 5 2 2 3 1 1 1 1 1 1 1 4 2 2 1 3 2 3 2 2 3 3 2 5 6 6 7 7
15 4 7 11 9 4 3 6 4 3 1 4 5 4 4 6 6 3 5 2 1 3 1 1 3 4 3 1 2 4 2 2 2 4 2 2 4 5 6 5 5 4 5 4 5
9 3 8 15 3 1 3 6 3 4 2 2 1 2 6 6 4 2 3 3 5 3 4 1 3 1 1 2 1 1 2 1 3 3 2 1 4 4 6 7 6 4 5 4 5
4 3 6 1 4 3 2 3 2 4 4 5 5 4 3 5 3 4 4 1 5 2 3 4 1 2 5 4 3 3 3 2 1 2 4 3 4 2 6 6 5 5 4 4 5
4 4 1 2 1 6 5 4 4 3 3 4 5 3 4 3 3 5 3 2 2 1 2 2 3 4 5 3 2 4 3 3 3 2 2 5 5 6 7 8 7 6 5 4 5
3 5 6 7 8 5 7 9 6 5 2 3 3 5 7 5 4 5 4 2 1 3 1 2 4 4 5 8 5 6 8 8 6 7 4 3 7 8 12 10 9 8 6 6 5
6 4 3 3 10 12 9 9 10 5 8 5 5 10 7 6 8 8 7 5 5 3 5 2 1 3 4 4 6 7 10 10 10 8 7 7 8 9 9 7 7 8 7 6 5
8 5 4 10 6 12 8 7 13 10 7 5 10 6 7 6 5 4 3 5 8 8 6 5 4 3 5 4 6 9 10 17 6 7 11 9 8 5 6 12 12 9 8 8 8
Wind_Direction
356 355 355 354 355 357 356 354 353 351 350 349 351 358 3 22 67 52 45 347 337 355 4 352 5 355 318 301 349 17 53 283 348 6 313 354 2 355 293 12 324 336 10 87 68
339 346 349 350 350 351 352 350 350 348 348 348 349 354 359 19 83 62 8 357 1 7 356 342 337 336 32 66 10 74 122 68 341 23 339 333 18 332 357 342 326 342 23 9 16
330 339 344 347 347 348 348 346 346 345 346 346 349 354 357 358 17 17 357 6 18 17 358 342 338 290 16 55 33 346 201 344 3 14 13 342 338 345 350 315 5 317 307 325 322
324 333 338 343 345 344 343 342 342 342 343 344 350 354 358 27 82 347 359 13 21 13 15 17 358 37 51 35 357 360 335 10 333 345 331 303 288 305 255 265 286 297 296 303 307
321 332 333 335 338 340 339 338 337 338 340 345 355 357 20 49 55 350 349 27 26 24 37 15 36 13 67 347 349 21 338 325 323 307 285 271 263 246 285 307 291 277 274 293 276
317 325 332 329 331 334 335 334 333 334 338 348 360 5 355 100 62 342 2 18 30 29 38 38 28 304 319 331 38 301 306 289 302 302 328 350 309 43 341 321 340 354 333 296 331
302 316 324 329 325 329 332 331 329 329 338 355 5 20 352 121 4 3 12 4 33 40 50 36 360 24 324 336 6 274 315 330 124 342 19 10 318 60 327 354 6 6 357 346 340
283 308 318 325 326 326 330 330 328 334 351 6 19 28 89 174 348 28 11 318 20 31 86 63 14 341 309 326 305 296 31 3 325 5 12 56 279 339 355 11 1 356 351 351 342
267 293 312 321 324 327 331 333 357 14 355 55 26 7 356 105 39 4 27 2 320 312 53 112 54 115 334 347 22 24 332 334 328 49 8 57 311 346 11 10 356 6 350 342 333
250 276 300 317 321 330 336 340 347 15 38 1 307 38 248 78 2 311 251 20 316 268 28 8 74 65 19 50 288 333 339 315 303 335 14 352 2 15 8 6 356 9 346 333 330
242 260 290 310 320 337 352 358 28 10 323 64 19 325 46 339 290 239 245 310 249 261 193 262 54 124 132 139 191 217 285 299 275 300 327 333 354 349 4 1 10 354 341 329 334
231 248 281 307 322 342 335 53 117 165 347 40 307 270 147 328 290 242 309 293 188 295 231 29 16 206 216 257 259 257 250 285 299 337 329 345 13 9 5 7 18 358 344 338 339
229 239 270 299 322 21 56 110 126 135 146 218 169 27 159 16 329 169 29 340 233 294 327 150 218 295 347 321 15 272 179 247 236 311 92 328 156 5 358 345 351 353 354 336 336
225 228 252 279 311 40 89 86 124 115 78 199 205 229 215 266 271 43 16 174 294 263 337 220 174 22 324 313 48 299 188 190 309 359 315 67 310 1 352 345 348 351 351 335 344
216 218 229 219 134 257 166 198 113 87 3 163 143 153 159 177 125 267 314 328 301 314 58 228 115 38 315 104 47 248 306 282 203 344 266 305 356 309 6 350 342 354 360 4 360
211 204 201 180 189 217 179 135 106 49 254 145 134 177 177 204 186 172 250 306 281 318 239 236 139 147 209 293 228 276 300 281 143 201 47 261 119 320 4 333 343 0 17 3 19
203 197 183 163 159 169 154 47 48 144 355 218 182 165 216 155 170 235 195 149 67 41 344 341 175 123 95 330 326 21 26 351 5 26 250 50 63 227 274 301 359 14 25 18 12
192 186 173 177 178 160 131 56 133 213 202 185 139 132 152 145 189 189 204 148 325 86 276 47 349 73 340 124 274 295 91 151 188 321 270 16 354 277 241 256 193 319 360 47 27
175 163 165 185 173 158 81 90 212 195 167 152 76 132 314 222 182 195 197 121 103 50 181 34 144 102 76 328 52 330 58 228 110 30 44 197 348 313 155 87 63 36 9 34 22
153 149 163 171 167 121 81 239 216 236 115 125 159 155 174 220 172 167 179 276 132 56 39 346 6 343 94 9 279 249 247 57 5 44 301 286 179 227 184 101 54 56 25 3 21
143 129 168 167 147 58 172 227 233 231 80 150 187 164 169 174 173 210 188 278 127 175 280 347 104 298 66 48 268 335 346 339 154 140 258 303 250 209 168 157 125 85 73 60 30
140 141 172 162 81 177 172 199 270 168 99 165 138 150 165 158 158 225 179 141 172 167 175 177 115 189 163 264 224 275 282 269 120 293 250 211 268 153 151 148 138 120 95 81 58
106 114 160 280 157 207 241 301 254 164 188 180 198 200 191 155 148 173 138 79 108 182 187 165 330 29 354 349 331 258 220 210 231 127 224 145 257 176 133 144 151 140 98 62 90
121 138 132 215 217 148 145 226 227 246 214 186 180 129 103 153 138 180 128 186 105 64 147 79 109 167 195 181 168 275 257 249 182 148 226 222 173 200 187 180 170 162 152 127 103
152 188 177 178 211 181 170 169 165 169 225 240 204 192 159 161 161 189 137 128 118 179 209 170 166 197 255 260 253 226 238 246 229 224 187 196 187 213 196 190 183 175 168 144 123
148 155 151 153 141 161 183 207 175 180 152 223 177 191 187 156 185 187 150 173 179 182 195 222 210 100 290 283 252 255 239 234 236 245 251 253 268 210 192 144 165 172 159 155 159
164 153 129 153 147 160 205 180 185 149 215 201 179 149 194 197 127 113 138 140 155 155 187 155 128 94 269 351 336 297 226 214 199 205 211 215 222 145 156 173 177 175 168 169 167